Zurück zum Katalog

STARLINK-2704

AktivKommunikationVLEO
NORAD 48643·PAYLOAD·🇺🇸 United States

Gestartet May 26, 2021 von Cape Canaveral Space Force Station

Loading…

Nächste Überflüge (nächste 24 Stunden)

TLE

AktuellSource: CelesTrak SupGP

Epoche: Sep 14, 2026, 21:48 UTC

1 48643C 21044F   26257.90881944  .00000724  00000+0  23266-4 0  2573
2 48643  53.1568 313.2870 0001128  85.6568 240.8558 15.31703129    14

Verfolge STARLINK-2704 in Echtzeit mit AllMySat

Download on the App Store